BGBW

Details ICAO BGBW (UAK)
Name Narsarsuaq
Region Greenland
Timezone America/Godthab (UTC-3.0)
Plans Departing 1035
Arriving 1381
Stats Elevation 111 ft / 34 m (AMSL)
Location 61.160700° -45.425700°
Runways 1
Magnetic Variation 21.946° W
Sunrise 2021-03-01 10:03:32 UTC / 2021-03-01 07:03:32 Local
Sunset 2021-03-01 20:27:27 UTC / 2021-03-01 17:27:27 Local
Advertisement - Login to hide

Runways

ID Width Length Bearing (true/mag) Surface Threshold Overrun Markings Lighting
07 148 ft / 45 m 6,010 ft / 1,832 m 40.52° / 62.46° CONCRETE 446 ft / 136 m 0 ft / 0 m PREC-APP EDGE THRESHOLD
25 148 ft / 45 m 6,010 ft / 1,832 m 220.54° / 242.48° CONCRETE 0 ft / 0 m 243 ft / 74 m PREC-APP EDGE THRESHOLD

Map

Weather


0- 5 10 15 20 25 30 35+ Temperature / °C

Clouds and Precipitation
Forecast for 2021-03-01 12:00 UTC. Updated 4 hours ago

Ground ~20,000 ft ~40,000 ft Winds

METAR

BGBW 011250Z 04004KT 010V120 9999 FEW028 M06/M13 Q1020

TAF

Not found

Frequencies

Tower 119.10 MHz AFIS
Warning: Do not use this data for real-world aviation or navigation. No guarantee of current accuracy is given.